Theta_e
347 348 345 342 339 337 337 337 337 337 337 337 337 336 334 333 332 325 316 313 314 316 316 315 314 314 313 312 313 312 312 312 312 311 311 312 311 310 310 310 310 309 311 311 316 325 330 333 333 333 332 332 332 333 334 335 335 335 335 336 335 335 335 335 335 336 336 336 337 337 336 336 336 335 335 335 334 334 334 334 333 334 334 333 333
347 347 344 340 338 336 336 337 337 337 337 338 338 336 335 334 333 327 318 313 314 316 316 315 314 314 313 313 313 312 312 312 312 312 312 312 311 311 310 310 309 310 310 311 312 318 327 332 332 333 333 332 333 333 333 334 335 336 335 335 335 335 335 335 336 336 337 337 336 336 336 336 336 336 335 335 335 335 335 334 333 332 333 333 333
345 344 341 338 336 335 335 336 336 337 338 338 338 337 336 334 333 328 319 314 314 315 317 315 315 314 313 313 312 312 313 313 313 312 312 311 311 311 311 310 309 310 310 311 312 316 323 329 331 332 333 333 332 332 333 333 334 334 334 334 334 334 335 335 336 336 336 337 337 336 336 336 336 336 336 336 335 334 333 332 331 331 332 332 332
344 342 338 336 335 334 334 335 336 337 338 338 338 338 336 335 333 329 321 315 313 314 316 316 315 315 314 314 313 313 313 314 313 313 312 311 311 311 311 311 310 309 310 311 312 316 321 327 330 331 331 331 331 332 332 332 333 333 334 334 333 333 333 334 335 335 336 336 336 335 335 335 335 335 334 333 331 329 327 326 326 325 326 326 327
343 340 338 335 334 334 334 334 336 337 338 339 339 338 337 335 333 332 327 320 315 313 315 315 316 315 315 314 314 313 313 314 314 314 312 311 311 311 312 311 311 310 310 311 312 314 320 327 329 330 330 329 330 331 331 331 332 332 332 333 333 333 333 333 334 335 335 335 334 333 332 330 328 328 326 324 321 319 317 318 319 319 319 318 318
342 340 338 334 333 333 333 334 335 337 338 339 339 338 337 335 333 333 331 326 320 315 314 314 315 315 315 315 315 314 314 313 313 314 312 311 311 311 312 312 312 311 310 310 311 313 318 326 329 329 329 329 329 330 330 331 330 331 331 332 332 332 333 333 333 334 335 335 334 333 330 326 322 320 318 317 314 313 312 313 314 315 314 314 313
342 340 338 335 333 332 332 333 335 337 338 339 339 339 338 335 333 333 333 331 326 320 316 314 314 315 315 315 315 315 314 313 313 313 312 312 311 311 312 312 312 312 311 310 311 312 316 324 328 328 329 329 330 330 331 331 331 331 331 332 331 331 331 331 331 329 331 333 333 333 330 322 315 313 313 313 312 310 310 310 311 311 311 311 309
342 341 338 335 333 332 332 332 335 337 339 340 340 339 338 336 332 333 334 333 332 327 322 317 314 314 314 315 314 314 313 313 312 312 312 312 311 311 312 312 313 312 311 310 311 312 314 322 328 328 329 330 330 331 331 331 331 331 331 331 330 330 331 331 327 322 323 325 327 331 330 320 311 310 310 309 309 308 308 308 309 309 308 308 308
342 340 337 335 332 331 331 332 335 337 339 340 340 339 339 337 332 332 334 333 333 332 329 324 319 315 313 314 314 313 313 314 312 312 311 312 312 312 312 312 313 313 312 311 310 311 312 319 327 328 330 330 330 331 330 331 331 331 331 329 329 329 330 330 325 321 322 322 323 324 325 320 310 308 311 310 308 308 308 308 307 307 309 311 311
341 339 337 334 332 331 330 331 335 337 339 340 340 340 339 338 332 331 334 334 334 333 333 331 326 321 317 314 314 314 314 314 313 311 311 312 312 312 312 313 313 313 313 311 309 311 312 317 325 328 329 329 330 330 330 331 331 331 330 330 329 327 327 328 326 325 325 324 324 320 317 316 310 308 311 310 308 309 310 311 313 314 316 316 314
340 337 336 333 332 330 329 330 334 337 339 340 340 340 340 339 333 330 333 334 334 334 333 333 331 328 323 319 315 314 314 314 314 312 311 312 312 312 313 314 314 314 314 311 309 310 311 315 322 327 327 328 329 329 329 331 331 331 330 330 329 326 326 328 328 327 327 326 325 318 312 312 310 308 309 312 316 316 316 318 319 318 319 319 321
338 337 335 333 331 329 328 329 332 336 338 340 340 340 339 340 334 329 332 334 333 334 334 333 333 331 329 324 318 314 314 314 314 313 312 313 313 313 313 314 314 315 315 311 308 309 310 313 319 324 326 327 329 329 330 331 331 330 329 328 327 326 327 328 327 327 328 327 325 318 312 311 308 308 311 316 317 316 320 321 321 321 323 323 325
337 336 334 332 330 327 326 328 331 335 338 339 340 340 339 340 335 329 331 334 334 334 333 333 333 332 331 329 324 317 314 314 315 314 314 315 316 316 316 315 316 317 315 312 309 308 310 312 316 321 325 328 329 330 331 331 330 329 327 327 326 327 327 327 326 324 324 325 322 315 312 310 310 313 315 317 314 316 320 320 321 323 322 321 321
336 334 332 330 327 325 325 327 330 334 337 339 340 340 340 340 336 330 330 333 334 334 333 332 332 332 331 331 329 321 316 315 315 315 317 320 320 321 319 318 319 318 315 312 310 308 310 312 314 320 327 330 331 331 330 330 330 329 328 328 327 326 325 324 323 318 317 318 315 312 311 309 312 315 317 318 315 315 318 316 317 318 315 315 314
335 332 330 328 325 325 326 328 331 334 336 338 339 340 340 340 338 332 330 333 334 335 333 331 331 331 332 332 330 325 320 317 317 319 322 323 323 324 322 320 320 319 315 313 310 309 310 312 317 325 330 331 331 330 330 330 330 329 329 328 327 325 323 320 316 313 311 312 310 310 310 309 311 312 315 316 312 311 313 312 312 311 311 310 309
334 329 328 325 325 329 331 331 332 335 337 338 339 340 340 340 339 333 331 333 334 335 333 331 330 330 332 332 330 328 324 320 321 323 326 326 327 328 326 322 322 319 315 314 312 309 311 315 322 329 331 331 330 329 330 330 329 329 329 328 327 325 324 318 312 310 310 309 309 310 310 310 311 311 313 312 311 311 311 311 311 309 309 309 310
333 328 327 325 327 331 332 333 334 335 336 337 338 339 340 340 339 334 332 333 335 335 332 330 329 330 333 333 331 330 327 324 325 327 329 330 330 331 328 325 324 321 316 315 314 310 312 318 326 330 331 330 330 331 330 330 330 330 329 328 327 327 326 320 313 310 309 309 310 310 310 310 311 313 312 310 311 311 310 311 311 310 309 309 310
330 327 326 325 328 331 331 333 335 335 335 336 338 339 339 340 338 335 333 334 335 334 331 329 330 332 334 333 331 330 328 325 325 329 333 334 333 331 330 328 326 322 317 316 316 314 312 318 326 329 329 331 331 332 331 331 331 331 330 329 328 328 326 321 314 310 309 310 310 310 310 310 311 313 312 310 309 309 309 310 309 309 309 309 309
329 326 326 324 326 329 330 332 333 333 333 335 337 338 339 339 337 335 334 335 335 333 330 329 332 336 336 334 332 330 330 329 325 325 332 335 333 333 331 329 326 322 318 317 319 318 315 315 323 328 329 331 332 331 331 331 331 331 330 329 328 328 327 322 314 310 309 309 310 310 310 310 310 311 310 309 308 308 308 308 309 309 308 309 309
330 325 325 324 325 327 329 330 330 328 329 331 334 336 338 338 337 335 335 335 335 332 329 331 336 338 337 336 335 333 331 330 325 320 327 334 333 332 332 327 324 322 321 320 321 322 319 315 318 325 328 331 332 331 331 331 330 330 329 328 328 327 326 320 310 308 308 308 309 310 310 310 310 309 309 308 308 308 308 308 308 308 308 308 308
331 324 325 325 326 328 328 327 325 324 323 325 328 332 336 337 336 335 336 335 334 331 331 334 338 338 337 335 336 336 332 327 324 320 323 331 332 331 330 325 322 322 322 323 323 324 322 318 317 320 325 330 331 330 331 331 330 330 329 328 327 326 326 320 309 306 307 307 308 309 309 309 309 309 308 308 307 307 307 307 307 307 308 307 307
329 324 326 328 330 329 328 326 325 323 321 322 324 327 332 335 335 335 336 335 332 331 332 335 338 337 335 334 334 336 332 325 323 321 320 326 329 330 329 323 321 323 324 324 325 324 322 320 318 317 323 329 331 330 331 331 329 329 329 329 327 325 325 322 315 309 307 307 307 308 308 308 308 307 307 307 307 307 307 306 307 306 306 306 307
328 324 327 329 330 330 329 329 327 324 322 321 321 324 328 331 334 335 335 333 331 332 333 336 338 336 335 333 334 334 330 326 325 324 322 322 323 327 328 325 322 323 324 325 325 325 322 321 319 317 322 328 330 331 332 331 328 328 330 330 328 325 324 323 319 313 308 308 307 307 307 306 306 306 306 306 306 306 306 305 305 305 305 305 305
328 325 327 329 330 330 330 330 329 327 325 323 322 324 325 326 331 333 332 330 330 332 334 337 337 335 334 333 334 333 329 326 325 325 326 324 321 321 325 325 324 324 325 325 325 324 322 321 320 320 324 329 330 330 331 331 328 327 328 329 328 326 325 323 320 317 313 310 308 307 307 306 306 306 306 305 305 305 305 305 305 305 304 304 304
328 326 328 330 330 331 331 330 330 330 329 327 325 325 322 323 328 330 328 328 329 331 334 337 336 334 332 331 331 332 329 327 325 326 326 326 322 317 321 326 323 324 325 324 324 323 322 322 322 322 324 327 328 328 329 330 329 327 327 327 328 328 328 327 324 322 319 316 312 310 309 307 307 306 306 305 305 305 304 304 304 304 304 304 304
328 327 328 330 330 331 331 330 331 330 328 328 327 325 322 322 326 327 326 327 329 331 334 335 334 332 331 330 328 330 330 328 326 327 328 327 324 319 321 325 322 324 326 324 324 323 322 322 323 324 324 325 325 325 327 329 329 327 327 328 329 330 329 329 328 323 322 321 318 316 314 311 308 307 306 306 305 305 305 305 304 305 305 305 305
333 330 328 330 330 330 331 330 331 330 329 328 326 325 325 324 324 324 325 328 330 332 334 334 332 331 331 330 328 330 330 329 328 328 330 329 325 321 322 322 320 322 325 325 325 324 323 322 324 326 325 325 325 324 326 329 330 329 329 329 330 330 330 330 328 324 322 322 321 318 316 314 310 307 306 305 305 305 305 306 306 306 307 307 307
338 334 329 329 331 330 330 331 331 332 331 329 325 323 323 323 323 324 326 329 331 332 333 332 331 330 330 329 329 331 330 330 330 330 332 328 323 321 320 320 318 320 324 325 325 325 324 324 326 327 327 326 327 326 328 332 332 330 330 330 330 330 330 330 328 326 324 321 320 317 315 314 310 307 307 307 307 307 308 308 309 309 310 310 311
339 336 332 331 333 334 331 331 332 333 333 331 326 322 320 319 321 323 327 330 331 332 333 332 331 330 330 328 329 332 331 330 330 332 331 324 321 320 320 319 317 318 323 325 326 326 326 326 328 328 328 328 328 328 330 332 332 331 331 330 331 330 330 330 328 327 326 323 320 317 314 313 310 307 309 311 311 311 312 313 313 314 315 315 316
339 338 338 336 337 337 334 332 332 334 334 333 328 324 321 319 320 322 325 330 331 332 332 332 331 331 329 327 329 331 331 330 331 332 328 323 324 323 322 320 318 318 320 323 325 327 327 327 328 329 328 329 329 329 329 331 332 332 331 331 330 330 330 330 329 328 327 325 320 316 314 312 310 309 313 317 317 316 317 318 319 320 320 321 321
340 339 339 339 339 338 335 333 334 335 335 334 331 326 323 321 321 322 325 329 331 332 331 331 331 331 329 328 328 330 331 330 331 331 327 327 328 327 327 325 324 324 324 324 324 326 327 327 328 329 329 329 330 329 329 330 331 331 331 331 330 330 329 329 329 328 327 326 321 316 313 311 309 310 315 318 320 321 322 322 322 323 323 323 323
340 339 340 340 340 338 335 334 336 336 335 335 333 329 324 323 322 323 325 327 329 330 329 329 330 330 329 327 327 329 331 330 331 332 328 329 330 329 330 329 328 329 329 329 329 328 328 329 329 330 330 330 330 330 330 331 331 330 330 330 329 330 329 328 329 328 327 326 320 314 310 309 308 310 314 317 321 324 324 324 325 325 325 324 324
340 339 340 339 339 338 337 337 337 337 336 335 334 330 326 324 325 326 327 327 328 328 327 329 330 330 329 328 328 330 331 331 331 331 329 329 330 330 330 330 330 330 331 332 331 331 331 331 331 331 331 330 330 330 330 331 331 330 330 329 329 329 329 329 329 328 327 324 316 311 308 308 308 311 316 320 323 324 324 325 326 326 326 326 326
340 340 340 339 337 337 337 338 337 337 336 335 335 330 326 326 327 328 329 329 329 329 329 330 329 329 329 328 330 332 331 331 331 331 329 329 330 331 331 331 332 332 332 332 332 332 332 331 331 332 332 331 331 331 330 331 331 330 329 329 328 328 329 329 330 327 326 322 316 312 309 309 311 315 320 322 323 324 325 326 326 327 327 327 327
341 340 339 338 336 336 336 337 338 337 336 336 335 329 325 328 329 330 331 331 331 331 331 331 330 330 330 329 331 332 331 331 331 332 331 330 331 332 332 332 332 332 332 332 332 332 332 332 332 332 332 331 331 331 330 331 331 329 329 328 328 328 329 329 329 327 325 324 320 318 315 315 316 319 321 322 324 325 325 325 325 325 326 327 327
338 337 337 337 336 337 337 336 337 337 336 336 336 330 326 329 331 331 333 333 332 332 332 332 331 331 331 331 331 332 332 331 332 332 332 332 331 332 333 333 333 332 331 332 332 331 332 332 332 332 332 331 331 330 330 330 330 329 329 329 329 329 328 328 328 327 326 325 323 322 319 318 320 322 322 323 324 324 324 323 322 322 324 325 326
336 334 334 336 335 335 337 337 336 337 337 336 336 333 328 329 332 332 332 333 333 333 333 332 332 331 332 333 332 332 332 332 332 332 331 332 332 332 333 333 333 333 332 332 332 331 331 332 332 332 332 331 330 330 330 330 329 329 329 329 329 329 328 327 328 328 327 325 324 323 321 320 322 323 323 324 323 323 322 322 322 321 322 324 325
336 332 331 333 332 328 333 338 338 337 337 336 336 335 331 331 332 331 331 332 333 333 333 332 332 332 333 333 332 331 331 332 332 332 330 330 331 331 333 333 333 332 332 332 331 331 331 332 332 332 331 331 330 330 329 329 329 329 329 329 328 328 328 327 327 327 327 326 325 323 323 322 323 323 323 323 323 322 322 321 321 321 321 323 325
335 329 328 332 329 323 332 339 339 337 337 336 335 335 333 333 333 332 331 331 332 333 332 332 332 332 333 333 332 330 331 332 332 332 330 328 331 332 332 332 332 331 331 331 331 331 332 332 332 331 331 331 330 330 329 329 329 329 329 329 329 328 328 328 327 326 327 327 326 324 324 324 324 324 323 323 323 322 321 320 320 319 320 322 323
332 327 328 332 329 324 333 339 338 336 336 336 335 335 334 333 333 332 331 332 332 332 332 332 333 333 332 333 332 330 331 332 332 331 329 328 331 333 331 331 330 328 327 329 330 331 331 331 331 330 330 331 330 329 329 329 329 329 329 329 329 328 328 328 327 327 327 327 327 326 324 324 324 324 323 324 323 321 319 318 318 318 319 320 321
332 328 327 331 330 326 331 336 337 336 336 336 335 335 333 332 333 332 331 332 332 332 331 331 332 332 332 333 332 330 330 331 331 330 330 330 331 331 330 330 331 328 326 327 328 330 331 331 331 330 330 330 330 329 329 329 329 329 329 329 329 328 328 327 327 327 326 326 326 326 324 324 323 323 324 324 323 322 321 319 318 318 318 317 318
331 328 327 331 331 327 328 331 334 335 336 336 336 335 333 332 332 331 331 332 332 332 331 330 330 330 331 332 331 330 329 330 331 330 329 330 330 328 328 330 331 328 327 328 328 330 331 331 331 330 330 329 329 329 329 329 328 328 328 328 329 329 328 327 327 326 325 325 325 325 325 324 324 324 324 325 324 325 324 322 321 320 317 315 316
328 327 329 334 332 327 327 328 332 334 335 336 336 334 334 333 332 331 331 332 332 332 331 330 330 329 331 331 330 330 330 330 330 328 328 329 329 329 328 329 330 328 328 328 329 330 331 331 331 330 330 329 329 329 329 329 328 327 327 328 328 328 328 327 327 326 325 325 325 325 325 325 324 325 325 325 325 325 324 323 322 320 316 314 314
329 330 334 336 333 328 326 328 331 333 334 335 335 334 334 333 333 332 332 333 332 331 331 330 329 329 331 330 329 328 329 329 328 326 326 327 328 328 328 328 328 328 328 327 328 330 331 331 331 330 329 329 329 330 330 329 329 328 327 327 327 328 328 328 327 327 326 326 326 326 325 325 325 325 325 325 325 324 324 323 321 318 316 315 315
333 336 338 338 334 328 326 328 331 332 333 334 334 334 334 333 333 333 333 333 333 331 330 329 328 329 331 330 328 328 329 329 327 326 326 327 328 327 326 326 327 327 327 327 327 329 331 330 330 329 328 328 329 330 330 330 329 328 327 326 327 327 327 327 327 327 327 327 326 326 326 326 326 325 325 324 324 324 323 323 322 319 318 319 318
338 339 339 339 335 329 327 328 331 331 331 332 333 333 333 331 331 333 333 333 333 332 330 329 328 329 331 330 328 328 329 328 327 328 328 328 328 326 325 325 326 327 327 327 327 329 330 330 329 329 328 328 329 328 329 330 329 328 326 326 327 326 326 326 327 327 328 327 327 326 326 326 325 325 324 323 323 323 322 322 322 319 319 322 321
339 339 339 338 335 330 327 327 330 332 332 332 333 333 332 331 330 331 332 333 333 332 331 329 329 330 331 330 328 326 327 328 329 329 329 328 327 327 327 325 326 327 327 328 328 329 330 329 329 329 328 329 329 328 328 329 328 327 327 326 326 326 325 326 326 327 327 328 327 326 326 325 325 325 324 323 322 322 321 320 320 318 319 321 319
340 340 339 337 334 331 329 327 330 333 333 333 333 333 333 332 331 331 332 333 333 332 331 330 330 332 331 329 327 326 327 330 330 330 328 326 326 327 328 327 327 327 328 328 328 329 330 329 329 329 328 328 328 328 328 328 327 327 327 327 327 327 326 325 326 326 327 327 327 327 325 324 325 324 323 323 322 321 319 318 318 318 318 318 315
341 340 339 337 335 334 332 329 330 332 333 334 334 334 334 333 332 332 332 333 333 332 331 330 330 332 331 329 328 328 328 329 329 329 328 327 327 328 328 328 327 327 328 329 328 329 330 329 329 329 328 329 329 328 328 327 327 327 327 327 327 328 327 326 326 326 326 327 327 326 325 324 325 324 323 323 321 319 318 317 317 317 318 315 311
341 339 339 338 335 334 333 331 329 330 333 334 334 335 335 334 333 332 332 333 333 332 331 331 331 332 332 330 328 327 328 328 328 328 328 329 329 329 329 328 328 328 329 329 328 329 329 328 328 328 328 329 329 329 328 327 327 327 328 327 327 328 327 326 326 326 326 326 326 325 325 324 325 325 323 321 320 318 318 318 316 316 317 314 307
338 335 338 338 335 334 333 333 331 329 330 333 334 336 335 335 334 332 332 332 333 332 330 331 332 332 331 329 327 327 328 327 327 328 329 330 330 329 329 329 328 328 329 329 328 328 328 328 328 328 328 329 329 329 328 328 328 328 328 328 327 326 326 326 326 326 326 325 325 325 325 325 324 324 322 320 318 319 318 318 316 315 315 313 307
Wind_Speed
27 26 27 26 26 26 26 26 25 24 24 24 24 23 23 22 22 21 20 21 22 23 23 23 23 22 21 21 20 19 19 18 17 17 16 16 15 14 15 15 15 15 15 15 16 17 18 20 23 23 21 21 22 23 24 25 25 24 23 22 22 22 20 19 19 19 19 19 18 19 18 17 17 16 16 15 15 16 16 16 16 17 17 16 16
26 26 27 26 26 26 26 26 26 24 24 24 24 23 22 22 22 21 20 21 22 22 22 22 23 22 22 20 20 19 19 18 17 17 17 16 15 15 14 14 15 16 16 16 16 17 18 20 22 23 22 21 21 21 23 24 25 25 25 24 24 23 21 19 19 19 19 19 19 19 18 17 17 16 15 15 15 15 16 15 15 16 16 15 15
25 27 26 26 26 26 27 26 26 24 24 24 23 23 22 22 22 21 20 21 22 22 21 22 22 22 21 20 20 19 18 17 17 17 16 16 15 14 14 14 15 16 17 17 17 17 19 21 22 23 23 22 21 21 22 23 24 25 25 25 24 22 21 19 18 18 17 17 18 17 18 17 17 16 15 14 14 14 14 13 13 14 14 13 13
23 26 26 26 26 26 27 26 26 25 24 24 23 22 22 22 22 21 20 21 21 22 21 21 21 21 21 20 19 18 18 17 16 16 16 16 15 14 14 14 15 15 17 17 18 19 20 22 23 24 24 24 23 22 22 23 23 23 23 22 21 20 20 18 17 17 15 15 15 15 16 15 15 14 13 12 11 11 10 10 9 10 10 9 9
21 25 25 25 26 26 26 26 26 25 24 24 23 22 22 22 22 22 21 20 20 21 21 20 20 20 20 19 19 18 17 16 16 16 16 15 14 14 14 13 14 15 16 17 18 19 20 22 23 24 25 25 25 23 22 22 22 21 20 19 18 18 18 17 16 15 14 13 12 12 12 12 12 11 9 9 9 8 8 7 7 7 6 6 6
21 23 24 25 26 26 26 26 26 25 25 24 23 22 22 22 22 22 21 20 20 20 20 20 19 19 19 19 18 17 16 16 15 15 15 14 14 14 14 13 13 14 16 17 18 19 21 22 23 25 26 26 25 23 22 21 21 19 18 16 15 15 15 15 14 13 12 11 10 9 10 9 9 9 8 7 7 7 7 6 5 5 5 5 5
22 23 25 25 26 26 26 26 26 25 25 24 24 23 22 22 22 21 21 20 19 19 19 19 18 18 18 18 17 16 15 15 14 14 15 14 14 14 14 13 13 14 15 17 18 19 21 23 25 26 27 25 24 23 22 21 19 18 15 14 14 14 13 13 13 13 12 10 8 7 7 7 8 10 9 8 8 8 8 8 7 6 7 7 7
22 23 25 25 26 26 26 27 26 26 25 25 24 23 22 22 22 21 21 20 19 18 18 18 17 17 17 17 16 15 14 14 14 13 14 14 14 14 13 13 13 13 15 17 18 19 20 24 27 27 26 25 24 23 22 21 19 16 13 12 12 13 12 11 12 15 15 12 10 7 6 7 8 10 10 9 9 10 11 11 11 10 10 10 11
22 24 25 26 26 26 26 27 26 26 26 25 24 23 23 22 22 21 20 20 18 18 17 17 17 17 17 16 15 14 13 13 13 13 13 14 14 14 14 13 13 13 13 16 18 18 20 23 27 27 26 25 24 23 23 21 18 15 11 11 11 12 12 10 10 13 13 12 11 9 6 6 9 12 12 11 12 13 12 13 13 13 13 14 14
23 25 26 26 26 26 26 26 26 26 26 25 25 24 23 22 22 21 20 20 19 18 17 16 16 16 16 16 15 14 13 12 12 13 14 15 15 14 14 13 12 12 13 16 17 18 19 22 26 27 25 25 24 23 22 20 17 13 10 9 9 10 11 10 9 9 9 9 9 9 7 7 10 13 14 13 14 14 13 14 14 15 16 17 18
25 26 26 25 25 25 26 26 25 25 26 25 25 24 23 22 22 21 20 19 19 17 17 16 15 15 15 15 15 14 13 12 12 13 14 15 15 14 13 12 12 12 13 15 16 17 19 21 24 26 25 24 23 22 20 18 16 13 10 8 8 8 10 9 8 7 7 7 8 8 7 8 12 14 14 14 15 16 16 17 17 19 19 19 20
26 26 26 25 25 24 25 25 25 25 25 25 25 24 23 22 22 21 20 19 18 17 17 15 15 14 14 14 14 13 13 12 13 14 15 15 15 14 12 11 11 11 12 14 15 16 18 20 22 25 25 24 23 21 18 17 14 12 9 7 7 8 9 9 7 6 5 5 6 6 7 10 13 14 13 15 16 17 17 18 19 20 19 18 18
28 26 26 25 25 24 24 24 24 24 24 24 24 24 23 22 21 21 20 19 18 17 16 15 15 14 13 13 13 13 13 13 14 15 15 15 14 13 11 11 10 10 11 13 15 15 17 20 21 24 25 24 22 19 18 15 13 12 10 8 7 8 8 8 7 5 3 3 4 4 8 13 14 14 14 15 16 16 17 17 18 18 18 17 17
29 27 26 25 24 23 23 23 22 23 23 24 24 23 22 21 21 21 20 18 17 16 15 15 14 13 13 12 13 13 13 14 15 15 15 15 14 13 12 11 10 10 11 13 15 15 17 20 22 25 26 24 21 18 16 14 13 11 9 8 7 8 8 8 7 6 3 2 3 6 11 15 15 14 15 16 16 16 16 17 17 17 18 18 18
27 27 25 24 24 23 21 21 21 22 22 23 23 22 21 21 21 20 20 18 16 15 15 15 14 13 12 12 13 14 14 15 15 16 15 15 14 13 12 11 10 10 12 14 15 15 17 21 24 27 27 23 21 17 15 13 11 9 8 7 7 9 11 10 8 7 6 7 8 10 13 15 15 15 15 16 16 16 16 16 17 18 18 18 18
25 25 24 24 24 22 20 20 21 21 21 22 22 21 21 21 20 20 20 18 16 15 14 14 14 13 12 12 14 15 15 16 16 16 16 14 13 13 12 11 10 10 12 14 15 16 18 22 26 27 26 23 20 16 13 11 9 8 6 6 8 11 12 11 10 9 8 8 10 11 14 15 15 15 15 15 16 16 16 16 17 17 17 18 17
24 24 24 24 24 23 21 20 20 20 20 20 21 21 21 21 21 20 19 18 16 15 15 14 13 12 12 14 15 15 16 17 17 16 15 14 13 13 12 11 10 10 13 15 15 17 19 22 25 26 25 22 19 15 12 10 8 7 5 6 9 11 11 11 10 9 8 8 9 11 13 14 14 14 14 15 15 15 15 15 16 16 17 17 16
24 23 24 24 24 24 22 21 20 20 20 20 20 21 21 22 21 20 19 18 16 15 15 14 13 13 14 16 16 16 17 17 16 15 15 14 13 12 11 11 9 11 14 15 16 17 19 22 23 25 25 22 18 14 11 9 8 7 6 7 9 10 10 10 8 8 7 7 8 9 11 13 14 13 14 14 14 14 14 14 15 15 15 15 15
23 23 23 24 25 24 24 23 21 20 20 21 21 21 21 21 21 20 19 18 16 15 15 14 13 14 16 17 16 16 16 16 14 14 15 14 14 12 11 10 10 12 15 16 17 17 19 20 21 23 24 22 18 15 11 8 7 6 6 7 8 9 10 10 8 6 6 6 7 8 9 11 12 13 13 13 13 13 13 13 13 14 14 13 13
22 24 23 25 25 25 25 23 22 21 21 21 21 21 21 21 21 20 19 18 16 15 15 14 15 17 17 17 16 16 15 14 13 14 16 15 14 13 11 10 10 13 16 16 17 17 18 19 20 21 22 22 19 15 11 8 4 4 6 6 7 9 10 10 8 6 6 6 6 7 8 9 10 11 11 12 12 12 12 12 12 12 12 12 13
24 26 25 26 26 25 25 24 23 22 21 21 21 21 21 21 21 20 19 17 16 15 15 16 17 18 17 16 16 16 14 12 13 15 17 17 15 13 12 10 11 15 17 17 17 17 17 18 19 20 20 21 20 16 12 8 4 3 5 5 6 8 10 10 9 7 5 5 5 6 7 7 8 9 9 9 10 10 10 10 10 11 11 11 11
26 28 27 27 25 25 25 24 24 23 23 22 22 22 21 21 21 20 19 18 17 16 16 17 19 19 17 16 16 15 13 11 12 13 16 17 16 14 13 11 12 15 17 17 17 17 17 18 19 19 19 20 20 17 13 9 7 4 4 4 4 6 9 9 7 6 5 5 5 5 6 7 8 8 8 8 8 8 9 9 9 10 10 10 10
28 30 29 27 25 25 24 24 25 24 24 23 23 22 22 22 22 22 20 19 18 17 18 19 21 19 17 16 15 14 11 11 11 12 13 15 16 15 14 12 13 16 17 18 17 17 18 18 19 19 20 21 20 17 13 9 7 4 4 4 4 6 8 9 7 5 5 5 4 5 6 6 7 7 7 7 7 8 8 8 8 8 8 9 9
30 31 29 28 26 24 24 24 24 23 23 23 22 22 24 24 24 23 21 20 19 19 19 20 21 18 16 15 14 13 11 12 13 13 13 13 15 16 16 14 15 18 18 18 19 18 18 19 20 21 21 21 20 17 13 9 6 4 3 2 3 5 7 8 8 5 4 4 4 4 5 6 7 6 7 7 7 8 8 8 8 8 8 9 9
29 30 28 27 25 23 23 24 23 22 23 23 21 22 25 26 25 23 21 20 20 21 20 20 20 17 16 15 14 12 12 14 14 13 13 12 13 16 19 17 17 19 19 18 19 19 19 19 20 21 21 20 19 17 14 10 7 4 3 1 2 3 4 5 7 6 4 3 3 4 4 6 6 6 7 7 7 8 8 8 9 9 9 10 10
25 26 27 26 24 24 23 23 24 24 23 21 21 22 25 26 25 23 22 21 21 22 22 21 19 17 16 16 14 13 13 13 14 13 13 11 11 14 17 17 17 19 20 19 18 19 18 18 19 20 20 19 18 16 14 12 9 6 3 1 0 1 1 3 6 5 5 4 3 4 4 5 5 5 6 6 7 8 9 9 9 10 10 11 11
22 24 26 25 23 24 23 23 23 23 21 20 21 22 24 24 23 23 22 22 22 22 22 21 19 17 16 16 14 13 13 13 14 14 13 11 10 12 14 14 16 19 20 19 18 18 18 18 18 18 18 18 16 14 13 13 10 8 6 4 2 1 1 3 5 5 4 4 3 3 4 5 5 5 6 7 8 9 9 10 10 11 11 11 12
21 22 25 25 23 24 23 23 22 22 21 20 21 21 22 23 22 22 22 22 22 23 22 21 20 18 17 17 15 14 14 14 14 15 13 11 10 11 12 13 16 19 20 19 18 18 19 18 17 17 17 17 15 13 14 13 9 8 7 6 4 3 3 2 4 5 4 4 3 3 4 5 6 7 8 9 10 11 11 12 12 12 12 12 13
23 23 24 25 24 23 23 24 23 21 21 21 21 20 21 22 23 23 22 22 22 22 21 20 19 18 18 18 16 14 14 14 14 14 13 12 11 11 12 13 16 19 20 19 19 19 19 19 17 17 17 16 14 13 13 12 10 8 7 7 6 6 4 2 2 4 3 3 3 4 3 5 7 8 10 12 12 12 13 13 13 13 13 13 13
25 24 24 25 23 22 23 25 23 21 22 22 21 20 22 23 22 23 23 23 22 21 21 19 18 18 18 18 16 14 14 14 14 14 14 14 13 12 13 15 16 17 18 18 19 19 19 18 17 17 16 14 13 13 12 12 12 9 8 8 9 8 5 3 2 3 3 3 4 4 3 5 7 9 11 12 13 13 13 13 13 13 13 12 12
21 23 24 24 23 23 24 24 23 22 22 22 21 21 22 22 22 24 24 23 22 21 20 19 18 18 17 17 17 15 14 14 14 14 15 16 15 13 14 15 16 16 16 16 17 18 18 16 16 16 14 12 12 12 12 13 11 10 10 10 11 9 6 4 3 3 3 3 4 3 4 6 8 9 11 12 13 13 12 11 11 11 11 11 11
20 21 22 23 23 23 23 24 23 21 22 23 21 21 21 22 23 24 24 23 22 21 20 20 19 18 16 17 17 16 16 15 14 14 15 17 16 14 14 15 15 16 16 15 15 16 16 14 14 13 11 11 11 11 12 12 10 10 11 10 10 9 7 6 4 2 2 2 3 3 5 7 8 9 10 13 13 11 9 7 7 7 7 8 8
22 21 21 22 23 21 22 24 24 22 23 23 21 21 21 21 22 23 23 22 22 21 20 20 20 18 16 16 17 16 17 16 16 16 17 17 15 15 15 15 15 15 15 15 15 14 13 12 12 10 9 9 9 9 11 12 10 10 11 9 9 9 8 6 3 0 2 2 3 5 7 7 8 9 11 13 12 10 8 6 5 5 4 5 5
23 22 21 21 20 19 22 25 25 25 24 22 20 22 22 21 22 22 22 22 22 22 21 20 20 18 17 18 17 16 17 18 17 17 18 17 15 14 14 14 14 13 13 14 14 13 12 12 11 10 10 9 9 9 9 11 10 10 10 9 8 8 7 5 2 1 2 4 6 7 8 8 9 10 11 11 10 8 7 6 5 4 4 4 3
19 18 17 17 17 18 20 23 25 27 25 22 21 22 23 22 21 21 21 22 21 21 20 19 19 19 18 19 18 17 18 19 18 18 17 15 14 13 13 13 13 13 13 13 13 13 13 12 11 11 11 10 9 9 9 10 10 10 10 8 8 8 6 4 3 3 3 4 6 7 8 8 9 9 9 9 8 7 6 5 5 4 4 3 3
15 14 13 15 16 17 19 22 26 29 28 24 22 23 25 23 22 22 21 21 21 21 20 19 19 19 19 20 19 19 20 21 22 21 19 17 15 14 15 15 14 14 14 13 13 13 13 13 12 11 11 11 10 10 10 10 11 11 10 9 8 7 5 4 5 4 5 5 6 6 7 8 9 9 9 8 7 6 6 5 4 4 4 3 3
15 13 11 14 14 11 16 22 25 30 30 26 23 24 26 24 22 21 20 20 20 20 20 20 20 20 21 21 20 22 23 23 23 21 19 19 17 16 17 16 15 15 15 15 15 14 14 14 13 11 10 11 11 11 12 11 12 12 11 9 9 7 5 5 6 5 5 6 7 7 7 8 9 9 8 8 7 6 5 4 3 3 3 4 4
14 13 11 13 11 7 14 20 23 29 31 27 24 23 25 25 22 21 20 21 20 20 20 20 20 21 23 22 21 24 25 23 23 20 17 18 19 18 17 17 16 16 16 16 16 16 14 13 13 11 9 10 11 11 11 12 13 13 12 11 9 8 7 6 6 6 7 6 7 7 8 8 8 8 7 7 6 5 4 3 4 4 4 5 5
14 13 12 13 12 9 14 18 22 28 31 28 24 22 24 25 24 22 22 22 22 21 20 21 21 23 24 23 23 25 25 24 22 19 17 17 19 19 17 17 16 16 17 17 17 17 14 13 12 12 11 9 9 10 11 13 14 14 13 12 11 10 9 8 7 6 6 6 7 7 7 7 7 7 7 6 5 4 4 5 5 5 5 6 6
15 14 13 15 14 12 15 18 21 26 29 28 25 24 24 26 26 25 24 25 23 22 21 22 22 24 25 24 24 25 25 25 23 20 18 18 18 18 16 16 15 16 18 17 17 17 15 13 12 11 12 12 10 11 12 15 16 15 14 12 13 12 10 10 9 7 6 7 8 7 7 7 7 7 7 6 6 5 5 6 7 6 6 6 7
17 15 14 15 15 14 15 19 22 25 28 28 27 26 25 26 28 27 27 27 25 23 23 23 23 24 25 24 23 24 24 25 23 21 19 18 18 18 17 16 15 15 17 17 16 16 15 14 13 12 12 13 13 13 14 16 17 16 15 13 12 12 12 12 11 9 7 8 8 8 6 7 8 8 8 7 7 6 6 7 7 6 6 6 7
19 17 16 16 16 14 15 19 23 25 26 27 27 26 25 25 26 26 27 27 25 25 25 24 24 24 25 25 23 23 24 24 23 21 19 19 19 18 18 18 16 15 16 16 16 16 16 15 15 15 14 13 14 15 16 17 17 16 16 16 14 13 12 12 12 10 10 10 9 8 7 8 8 8 9 9 8 6 6 7 7 6 6 6 6
18 18 18 18 17 16 17 20 23 24 25 27 27 25 24 24 23 23 25 25 24 25 24 24 24 24 26 26 25 24 23 23 23 21 20 20 19 18 17 17 17 17 16 17 17 17 17 17 17 17 16 16 15 15 16 16 15 15 16 17 16 15 13 11 12 12 12 12 10 9 8 9 9 9 10 9 8 7 6 7 6 6 5 6 6
20 20 22 22 19 18 19 21 23 24 25 27 27 25 24 23 22 21 22 23 24 24 25 25 25 25 27 27 26 26 24 23 21 20 21 20 18 18 17 17 18 18 18 18 19 18 18 18 19 18 18 18 18 17 16 16 14 14 17 18 16 16 14 13 14 13 12 11 10 9 10 10 10 10 10 9 8 6 6 6 6 5 4 5 5
23 23 26 23 17 17 19 20 22 23 23 26 26 26 25 24 23 24 24 24 25 26 27 28 26 26 29 28 27 27 26 23 21 19 20 20 19 18 17 18 19 19 19 19 20 19 18 19 20 20 19 19 19 19 19 17 14 13 14 17 17 15 15 16 15 13 12 12 11 11 11 12 13 12 11 9 8 6 4 5 5 4 4 4 3
24 24 24 20 15 16 18 20 22 23 22 24 26 27 27 25 24 26 27 27 28 29 29 28 27 28 29 28 26 26 25 23 21 19 19 19 18 17 17 17 19 20 20 19 20 19 19 20 20 20 19 18 18 19 20 18 15 14 14 15 14 13 17 20 17 14 13 12 13 14 14 15 15 13 10 8 6 5 3 3 3 3 3 3 1
25 23 21 18 16 18 18 19 23 24 22 23 26 27 28 26 24 24 26 28 30 29 27 27 27 28 28 27 26 25 25 23 21 20 19 18 17 17 18 17 18 20 20 20 20 20 19 20 21 20 19 19 18 19 20 19 19 18 16 15 12 10 16 20 19 18 17 15 14 15 16 17 17 14 10 7 6 3 2 2 3 3 3 3 2
23 22 20 18 19 18 17 18 21 24 24 25 28 29 29 27 24 23 25 27 29 27 26 26 27 28 29 28 25 24 24 22 21 20 19 18 17 18 19 19 19 20 20 19 20 19 19 19 21 20 19 19 18 18 19 20 21 20 18 17 11 8 13 18 18 19 20 20 18 18 18 17 16 14 10 8 5 3 3 3 4 4 3 2 3
22 22 19 18 19 17 17 18 20 23 25 27 29 31 31 28 23 22 24 26 27 26 26 27 27 29 29 27 24 23 22 21 21 20 19 19 18 18 20 20 20 21 19 18 19 19 19 20 20 21 20 19 17 16 17 18 20 20 19 18 12 10 14 17 17 17 19 23 21 21 22 20 17 14 10 9 6 5 4 4 3 3 2 0 2
24 23 19 18 19 20 20 20 19 23 26 28 30 31 32 29 22 20 21 23 26 25 26 29 30 29 29 28 26 25 23 22 21 20 19 19 18 18 20 21 21 21 19 18 19 20 20 20 20 20 20 19 17 16 16 16 18 19 18 17 14 14 18 19 19 18 20 21 22 23 24 22 20 16 12 11 9 7 5 4 3 1 1 1 1
22 19 19 20 21 23 23 23 22 22 26 28 29 31 32 29 22 18 18 20 24 25 26 30 31 29 30 29 28 27 24 22 20 20 20 19 19 19 20 21 21 20 19 19 20 20 20 20 20 20 19 19 18 16 16 16 18 19 18 17 15 15 17 19 20 21 20 19 20 23 23 22 20 17 15 13 10 8 7 4 2 1 3 2 1
Wind_Direction
166 163 163 159 159 158 155 153 153 154 150 147 142 138 136 135 135 134 136 141 146 145 145 144 143 144 143 143 142 141 139 136 133 129 124 118 110 103 98 96 95 94 94 93 93 95 98 102 104 104 103 102 101 98 94 93 94 95 94 95 96 96 97 98 99 99 99 98 98 97 94 93 93 93 93 93 93 91 91 91 92 91 89 88 86
168 164 164 160 160 159 156 155 154 156 152 149 144 140 137 137 136 136 138 141 146 147 147 146 146 146 145 145 144 142 139 136 134 131 126 121 115 109 103 100 98 95 95 93 94 98 102 106 108 109 107 105 104 101 95 92 92 92 91 90 89 91 94 96 98 98 98 98 97 97 98 97 96 96 95 94 93 93 91 90 91 90 90 90 88
167 164 165 160 161 159 157 156 156 157 154 151 146 143 139 139 138 137 138 140 147 149 150 149 149 148 148 147 145 143 140 138 135 133 128 123 119 113 108 103 98 97 97 95 95 99 107 111 111 112 110 107 105 100 97 95 93 90 89 86 85 86 89 92 94 95 96 97 98 98 99 97 95 94 93 93 92 92 89 87 88 90 92 92 91
167 164 165 161 161 159 158 158 158 158 156 153 149 146 143 142 139 138 138 140 145 149 151 151 152 152 151 149 146 144 142 141 138 135 131 127 123 118 112 106 100 98 99 99 98 100 108 113 113 112 109 107 106 102 100 99 96 95 92 89 87 86 87 88 90 91 92 93 95 96 95 94 94 93 91 91 87 83 82 83 85 87 89 91 92
168 166 165 161 160 160 159 159 159 160 158 154 152 149 146 144 142 140 140 141 143 147 151 152 154 154 154 151 148 146 144 145 143 139 134 131 128 122 117 112 105 102 101 103 104 104 108 113 113 111 110 110 109 107 104 101 98 97 96 95 93 90 88 87 88 91 93 92 93 92 89 88 89 90 88 85 82 77 76 77 78 81 85 88 91
171 168 165 162 161 160 161 160 161 162 160 157 155 154 150 147 145 142 141 141 142 144 148 152 155 155 155 153 150 149 148 149 148 144 138 137 132 126 123 119 112 107 105 106 108 108 110 114 114 113 113 113 111 109 104 100 98 97 95 96 95 92 93 94 93 96 101 102 99 92 85 85 88 90 87 84 84 81 79 84 91 93 95 91 87
173 170 166 163 161 161 162 161 163 163 162 160 159 157 154 151 149 145 142 141 142 143 145 149 153 156 156 155 153 153 153 153 154 149 144 143 137 132 129 125 118 112 109 109 111 112 114 117 118 118 117 116 112 107 100 97 96 95 94 95 94 91 89 92 96 97 100 102 101 94 81 78 89 92 88 89 89 88 88 91 96 98 97 90 85
173 172 167 164 162 161 163 163 164 165 164 164 163 162 157 154 152 149 145 143 143 143 144 147 151 154 156 157 156 156 156 156 157 157 153 150 144 138 133 129 124 118 114 112 114 116 117 120 123 124 122 118 112 105 99 97 94 93 95 95 92 88 86 89 92 89 86 85 83 82 73 63 78 89 87 87 88 88 88 87 89 90 91 90 91
176 173 167 164 163 161 163 165 166 166 167 167 166 165 161 157 155 153 150 147 146 145 146 149 151 151 153 155 157 157 157 156 157 161 161 156 151 145 138 134 129 123 118 114 114 117 120 124 129 129 125 119 112 105 100 96 92 92 98 98 90 86 92 96 89 82 76 75 68 64 67 61 75 87 87 86 86 85 85 87 89 89 89 91 96
179 172 168 165 163 163 164 166 167 168 169 169 169 168 165 160 157 158 155 152 150 147 148 151 151 151 152 154 156 157 157 156 156 161 162 159 156 151 145 140 136 132 123 116 115 119 124 128 133 133 128 121 114 107 102 96 95 101 108 102 90 80 87 96 86 74 68 65 51 51 69 77 80 83 84 86 88 88 90 93 95 94 93 93 92
178 170 167 165 164 164 164 167 168 170 171 171 171 170 167 163 161 162 160 157 154 152 152 152 153 153 153 154 155 156 156 155 155 158 160 160 158 155 152 146 145 141 126 119 118 122 128 133 137 137 131 124 117 110 105 102 104 111 116 107 93 75 73 78 73 63 53 47 36 47 75 89 88 86 86 88 90 92 92 93 94 91 89 89 88
174 168 166 165 165 165 166 169 169 172 174 173 173 172 170 166 164 166 165 162 159 157 156 155 155 156 156 156 155 155 154 153 153 155 155 155 155 156 155 152 152 144 128 122 124 125 132 137 140 139 131 124 118 113 111 111 116 123 127 119 100 81 71 67 54 38 24 21 24 40 82 96 94 93 91 91 93 94 92 91 91 91 91 91 93
168 166 166 167 165 165 168 169 170 173 174 173 174 173 171 168 166 169 169 167 164 161 160 160 159 159 158 158 158 155 152 152 154 155 154 153 153 152 150 151 154 147 133 126 128 128 134 139 140 138 130 123 120 118 119 123 133 142 144 129 104 89 82 73 49 26 3 356 14 56 101 102 98 96 94 93 93 93 89 88 89 93 96 97 98
165 166 167 167 165 165 168 168 169 171 173 174 174 174 172 169 168 171 172 171 168 165 164 164 163 163 162 161 162 159 156 156 157 156 155 156 156 150 146 149 151 150 142 131 132 131 133 139 137 135 130 126 125 123 126 132 143 148 144 123 101 87 73 63 49 40 49 68 82 105 109 103 100 95 93 92 92 91 87 86 87 90 93 93 94
164 166 166 166 164 162 165 166 166 168 172 174 175 174 173 171 171 173 174 174 172 171 170 169 168 168 167 167 167 163 161 158 156 157 158 161 158 151 148 150 148 150 147 135 135 131 131 138 136 133 130 129 128 129 131 137 145 142 136 119 97 77 61 55 59 66 83 102 110 112 106 103 102 96 91 90 90 89 88 87 87 90 92 93 94
167 166 167 165 160 157 160 163 164 166 169 172 174 173 174 173 173 175 176 178 176 174 175 175 172 171 172 171 171 165 161 157 156 159 161 163 157 152 153 154 148 147 147 138 134 130 130 138 137 133 131 130 130 133 136 142 146 139 128 109 86 70 60 59 69 79 89 104 113 111 104 100 99 96 94 91 90 89 87 88 90 92 93 94 94
171 169 168 164 156 154 158 161 163 165 166 168 171 173 176 175 175 177 178 180 178 177 178 177 175 173 171 169 168 164 159 157 158 161 162 161 155 155 158 157 153 148 148 140 134 129 132 140 138 134 132 130 131 133 138 143 140 128 108 82 69 60 54 55 67 82 91 101 108 107 104 100 95 94 96 94 91 89 88 89 91 92 91 92 92
171 172 170 162 155 156 159 160 163 167 167 167 171 174 176 176 177 179 180 183 182 181 179 177 177 172 167 163 159 157 157 157 159 163 162 159 155 159 160 159 159 153 151 143 134 129 134 143 141 137 134 130 128 128 132 132 122 109 90 69 56 45 40 41 56 80 90 97 105 107 105 101 98 96 95 92 89 87 86 86 87 89 90 91 91
171 172 170 164 158 158 160 161 165 168 167 167 170 173 176 178 179 182 183 185 186 182 179 178 175 168 163 158 153 153 155 157 162 169 169 166 161 162 162 160 162 157 153 146 137 131 133 143 146 142 138 131 125 123 122 117 111 103 86 64 47 37 30 30 43 71 88 93 105 110 106 103 103 100 97 95 93 91 89 88 89 90 90 89 89
174 173 170 166 162 161 161 161 165 168 168 167 168 171 175 179 181 184 185 186 185 181 180 178 171 166 163 158 156 157 158 159 167 176 177 174 170 167 166 161 161 160 156 148 140 134 132 140 147 147 142 136 130 123 115 109 112 104 85 67 49 40 34 31 40 61 80 87 103 113 109 105 103 100 98 97 98 97 95 93 91 89 88 87 86
175 174 171 168 165 162 160 159 163 165 167 167 169 170 173 179 183 185 187 186 183 183 182 178 172 167 165 162 163 166 164 163 170 180 181 179 177 173 171 164 160 161 158 152 143 137 135 136 144 150 146 142 138 129 121 129 156 125 89 76 52 44 43 38 44 54 64 77 94 105 105 100 96 94 94 95 96 97 97 95 92 88 88 87 87
175 174 171 170 167 163 159 159 162 164 167 168 170 170 173 179 183 185 186 184 182 184 183 180 175 169 167 167 168 172 170 167 172 180 183 183 183 179 175 168 163 163 162 157 148 142 140 137 141 149 150 146 141 136 136 152 171 138 98 86 63 55 47 36 38 48 50 60 80 90 93 92 91 91 90 91 92 92 92 90 90 90 90 90 90
176 176 173 171 170 166 163 164 164 166 168 169 170 170 175 179 183 186 184 181 182 183 183 183 178 172 169 169 171 174 171 169 173 177 180 183 185 185 182 174 165 166 165 160 154 147 144 140 139 144 147 146 143 142 145 154 166 140 111 96 70 58 41 33 40 51 50 49 65 77 82 87 88 89 87 87 85 84 84 83 85 87 90 89 88
179 178 174 172 172 172 171 169 168 168 169 169 171 173 177 181 183 185 183 181 182 182 183 183 178 174 173 173 175 176 172 171 177 180 178 180 182 184 185 177 167 167 167 162 156 152 148 144 140 142 146 146 148 151 150 149 159 155 133 104 66 57 41 37 42 46 60 59 64 72 75 80 82 84 81 80 79 79 80 80 82 82 84 85 86
179 179 177 176 178 179 175 172 173 175 174 172 173 177 179 182 185 183 182 182 183 183 182 180 177 178 179 177 180 183 179 174 178 181 177 179 179 182 183 176 168 168 168 164 157 154 152 149 146 147 150 152 157 161 159 154 155 169 168 125 62 59 43 25 21 25 54 74 79 78 74 76 78 79 78 77 80 84 86 85 85 84 84 84 84
178 182 184 184 182 181 181 179 179 180 178 177 178 180 182 183 185 183 181 183 184 183 180 179 180 182 183 182 184 187 184 176 175 175 169 171 172 177 182 178 171 168 170 167 160 157 156 155 154 153 157 161 163 165 167 163 161 175 187 183 279 63 45 354 355 8 38 51 75 84 77 82 83 83 84 86 87 89 91 90 89 87 86 85 83
179 189 190 188 185 185 189 187 184 183 178 181 186 184 187 186 185 183 183 184 184 184 183 182 184 184 187 191 192 187 179 169 166 167 166 167 167 170 179 183 176 172 173 170 165 161 158 160 159 158 161 164 163 167 169 166 172 184 188 200 231 265 316 341 353 4 25 34 46 76 86 101 106 101 95 94 94 94 95 94 93 92 90 87 84
185 193 191 189 190 192 194 192 190 187 180 185 190 187 189 189 187 186 185 188 188 187 187 186 187 189 191 195 195 185 174 165 161 163 168 170 168 165 168 174 174 176 177 173 170 166 163 164 162 164 170 169 167 174 173 169 183 196 191 197 217 251 288 333 11 14 21 28 30 55 90 116 125 117 105 100 99 99 98 97 95 92 89 88 85
188 193 195 193 195 197 197 198 198 192 185 188 190 187 190 190 189 189 188 193 193 192 191 190 193 193 193 196 194 184 174 167 165 167 171 171 166 163 160 160 165 174 178 175 174 171 168 167 165 174 180 177 179 184 182 180 192 204 199 195 204 225 258 302 7 8 10 17 28 49 83 122 132 127 113 106 103 103 101 98 94 92 89 87 85
189 193 202 202 200 202 202 203 205 199 191 191 190 187 191 192 192 191 192 196 198 196 194 196 200 198 197 199 194 186 178 172 174 173 171 169 162 159 157 155 154 162 171 174 176 174 171 168 171 180 181 180 187 189 189 190 195 204 205 204 213 221 232 247 287 335 352 12 33 56 90 124 135 132 121 112 106 102 97 93 91 89 87 86 84
192 194 204 209 206 205 206 208 210 206 197 194 193 192 193 194 193 193 193 197 199 198 197 201 206 203 202 201 195 190 183 178 180 177 172 168 159 154 156 154 151 150 156 165 170 171 168 166 172 179 177 181 190 190 193 197 201 206 206 212 224 227 226 236 263 309 338 13 39 65 106 129 141 140 135 126 112 101 91 86 85 84 85 85 84
198 202 205 210 211 210 212 211 213 213 204 199 198 197 197 196 196 195 194 196 198 198 201 204 206 205 203 200 197 192 185 183 183 182 180 173 158 155 157 153 152 147 145 150 158 165 166 166 171 177 178 185 191 192 196 201 207 208 204 214 225 228 229 233 249 291 354 25 63 95 113 129 143 146 139 128 117 109 103 95 89 84 83 83 82
199 206 205 205 211 217 223 218 214 217 210 203 204 204 201 199 199 198 195 194 196 200 204 205 204 204 202 198 197 194 187 185 186 187 187 176 159 159 161 154 151 148 145 149 154 162 168 173 178 185 194 202 201 198 203 204 206 205 204 213 216 218 222 217 222 105 63 74 102 111 115 122 131 132 127 122 119 118 120 117 112 101 90 84 78
194 201 202 201 208 216 230 230 219 217 213 206 209 208 204 204 203 202 201 197 198 202 205 206 205 205 203 198 196 195 189 186 186 188 186 175 164 166 167 159 155 155 159 160 163 168 176 186 189 197 210 216 211 206 211 207 201 201 200 199 197 201 207 202 183 114 97 107 112 110 112 114 116 120 121 119 118 119 121 119 117 115 105 96 86
190 198 205 206 209 212 228 237 226 217 212 208 210 209 207 210 209 208 207 205 206 207 206 207 207 208 206 201 199 196 189 185 183 185 184 177 174 175 174 171 166 169 177 175 176 179 184 195 199 203 209 207 208 208 208 206 202 195 186 177 179 186 189 183 164 144 134 125 119 115 114 114 114 117 118 117 117 117 116 112 110 112 112 111 107
192 195 207 208 208 205 216 233 227 216 212 209 207 207 209 212 213 214 212 212 213 211 209 210 210 211 208 203 200 194 189 185 185 187 185 180 182 185 182 180 179 183 189 189 190 191 193 202 205 208 209 201 201 201 197 204 202 187 177 170 169 178 177 166 167 161 150 138 128 123 120 121 123 122 120 119 119 118 114 109 108 113 117 120 115
198 192 200 201 195 197 216 229 221 213 215 212 207 208 209 209 210 213 215 217 217 214 214 214 213 210 207 204 197 192 190 188 191 195 190 186 188 193 189 184 187 192 197 198 198 201 202 205 204 201 209 204 193 190 190 196 195 182 174 168 165 176 179 169 170 166 156 146 138 132 129 131 129 126 125 123 122 120 117 115 118 126 127 122 116
193 189 194 191 180 198 222 222 214 212 217 216 211 212 212 209 207 207 210 213 213 213 215 216 213 209 207 203 193 190 191 192 197 199 195 196 191 192 193 188 192 196 199 202 201 203 203 203 202 189 192 201 189 185 190 188 184 176 166 162 167 175 175 176 176 165 160 155 147 142 139 138 136 135 132 130 127 120 119 124 124 125 124 119 112
189 192 194 185 180 202 211 208 212 215 218 218 217 215 215 213 208 207 209 208 206 207 213 216 213 210 207 201 193 191 192 195 201 199 197 200 190 190 195 190 193 197 197 198 196 196 195 195 200 187 179 188 188 186 185 178 173 169 163 162 168 173 177 183 180 169 166 164 160 156 152 150 150 148 140 134 128 121 127 128 121 120 122 120 113
194 195 191 187 188 194 195 201 210 213 215 217 216 212 211 210 207 208 208 206 205 205 210 215 213 209 207 200 194 193 195 198 202 200 197 196 189 191 196 193 195 198 197 196 192 192 192 191 197 194 183 178 180 182 180 176 172 166 164 168 171 174 181 182 178 178 174 170 172 172 165 158 157 153 145 138 133 130 134 125 114 113 117 117 112
195 194 194 191 192 191 190 198 206 210 214 213 208 205 205 205 207 210 207 204 205 205 206 210 210 207 205 202 198 196 199 202 203 204 201 195 193 195 196 197 199 198 199 196 192 193 193 193 195 197 197 188 180 179 182 182 177 168 164 168 174 176 178 178 178 179 172 170 173 170 163 156 156 155 148 144 144 147 141 124 112 109 109 109 108
197 197 197 192 192 190 188 196 202 207 211 210 207 206 206 205 208 211 206 203 204 205 206 206 206 206 204 204 204 201 203 205 203 205 204 198 198 198 196 199 197 193 198 196 194 197 195 196 196 195 199 200 191 184 187 188 184 180 170 163 166 171 175 179 177 172 169 167 163 160 157 158 159 156 151 149 154 159 147 131 121 115 108 104 106
207 203 195 191 195 191 188 195 201 205 207 209 209 210 210 210 214 213 207 205 206 207 208 205 203 206 207 207 207 205 206 206 203 204 205 202 203 203 202 205 198 191 197 198 196 199 197 198 202 199 194 197 198 193 191 195 193 185 172 165 167 166 165 175 175 170 171 167 160 161 159 159 160 158 157 155 159 159 143 135 131 125 115 103 104
210 204 192 192 198 192 189 193 199 203 205 208 210 212 213 214 217 214 210 211 211 209 206 204 206 209 209 208 207 207 208 207 206 204 205 206 207 208 209 212 207 198 198 201 199 199 199 199 201 203 198 194 194 190 189 198 203 192 175 166 165 165 166 174 173 168 171 167 162 165 160 159 163 162 163 161 163 162 140 133 135 129 117 103 101
206 197 189 194 201 195 189 190 197 200 203 208 208 208 211 214 213 210 212 215 213 210 207 208 212 211 209 207 206 207 207 208 209 206 206 208 208 210 213 214 213 204 199 204 204 200 200 200 199 201 203 200 193 186 186 194 206 211 194 172 163 171 178 175 170 169 172 170 167 165 161 162 166 167 168 166 168 169 149 143 147 133 113 101 102
197 192 190 199 206 201 193 191 197 200 203 209 209 208 210 214 214 211 213 215 214 212 213 216 215 210 208 207 204 205 206 208 211 211 209 211 210 212 215 213 212 204 199 204 206 204 202 201 201 202 203 205 199 190 185 184 191 201 200 182 171 180 181 172 168 170 171 173 170 163 162 164 166 171 174 173 172 172 171 172 168 146 129 130 136
194 195 198 205 203 201 199 196 199 202 206 212 212 212 212 215 218 218 219 219 217 218 221 221 216 211 209 206 203 205 207 207 211 214 213 215 216 216 216 216 212 205 200 203 206 205 205 203 202 204 204 204 206 200 186 177 181 187 188 186 182 182 184 178 173 171 168 171 172 165 164 164 168 178 185 181 177 188 224 206 180 166 160 179 211
197 201 205 208 202 201 205 203 204 206 211 217 218 218 218 217 218 220 222 224 223 225 225 221 216 213 209 206 205 206 207 208 209 213 217 220 221 217 215 215 212 207 202 203 206 205 206 205 201 204 207 207 208 207 195 182 181 183 182 186 189 183 189 189 182 177 169 164 166 168 168 168 175 187 192 188 193 237 245 197 187 182 170 206 225
210 211 213 215 209 207 208 206 209 210 214 220 221 221 223 223 221 221 223 226 227 228 226 221 215 213 210 207 206 205 207 210 209 212 219 222 222 218 214 213 212 207 202 204 207 205 205 204 200 202 207 208 208 208 206 196 187 184 183 186 190 183 184 188 187 185 175 165 165 171 172 173 181 188 191 195 205 229 219 188 204 203 160 127 207
212 211 214 220 219 216 212 209 212 213 214 221 223 224 226 226 226 225 225 227 228 227 226 222 216 211 209 206 202 203 206 209 209 212 217 220 219 215 211 212 213 206 202 205 205 205 205 203 201 203 205 206 206 205 208 204 192 189 190 187 188 184 181 184 188 189 183 174 172 175 176 179 184 183 186 198 208 207 198 191 213 214 81 13 170
217 222 222 226 226 222 218 216 217 217 216 218 222 224 227 229 229 229 229 229 229 227 225 223 219 212 208 204 200 202 204 207 210 211 214 217 217 213 208 208 208 203 205 208 205 203 204 204 204 205 205 204 204 203 204 205 197 194 197 195 195 196 191 188 189 191 190 187 181 176 179 185 188 182 181 192 208 210 203 202 223 339 0 331 211